Wind_Speed
10 10 9 9 9 9 9 9 8 8 8 8 8 9 9 8 9 9 10 11 11 11 11 12 12 12 12 11 10 10 10 10 9 8 7 7 7 6 6 6 6 6 6
9 10 11 9 9 10 9 9 8 9 9 9 10 10 9 9 10 10 11 12 12 13 13 14 14 13 13 13 12 12 11 11 11 10 9 9 8 8 8 8 8 8 8
10 10 11 10 10 10 10 9 9 10 11 11 11 10 10 11 10 11 12 13 13 14 15 15 15 15 14 14 14 13 13 13 13 12 12 11 11 10 10 10 10 10 10
11 11 12 11 10 10 10 10 10 11 11 12 12 12 12 12 12 11 11 12 13 14 14 14 15 15 16 16 16 16 15 15 14 14 14 14 14 13 13 13 12 12 12
12 12 12 12 11 10 10 10 10 11 12 12 13 13 13 13 12 12 12 11 13 13 14 14 14 15 16 17 17 17 18 17 17 16 16 16 16 16 16 15 15 15 14
13 13 12 12 12 11 10 11 11 12 13 13 13 14 13 11 10 11 11 12 13 12 13 13 15 16 16 17 17 18 19 19 18 18 18 18 18 18 18 18 17 17 17
12 13 13 12 12 12 12 12 12 13 13 13 13 13 12 11 10 10 10 11 12 12 13 13 14 15 16 17 17 18 19 20 20 20 20 20 20 20 19 20 20 20 20
11 12 12 13 13 13 13 13 13 13 13 13 13 13 12 11 11 11 11 11 12 13 14 14 15 15 16 17 18 19 20 20 21 21 21 21 21 21 21 21 21 21 21
11 11 12 13 13 12 12 13 13 13 13 14 13 13 12 11 10 10 11 11 11 12 13 14 16 16 16 17 18 19 20 21 21 22 22 22 23 23 23 22 22 23 23
12 12 13 13 13 13 13 13 13 13 13 13 13 13 12 10 9 10 10 11 12 13 13 15 16 16 16 17 17 18 19 21 21 22 23 23 23 23 23 24 23 23 24
12 12 12 13 13 13 12 12 12 12 12 12 12 12 11 10 9 9 9 11 11 12 13 15 16 16 17 18 18 19 20 21 21 22 23 24 23 23 24 24 24 25 25
12 11 12 13 12 12 11 11 12 12 12 11 11 10 10 10 10 9 10 11 11 12 14 14 14 15 17 18 19 20 20 21 22 22 22 23 24 24 24 24 25 26 26
12 11 12 12 12 11 11 11 11 11 11 11 10 10 10 9 9 9 9 10 11 13 13 13 14 15 16 17 18 19 20 21 22 22 22 23 23 23 24 24 26 26 27
12 12 12 12 12 11 10 11 11 10 11 11 11 11 10 10 10 10 10 10 11 12 12 12 13 14 15 16 17 18 19 19 20 21 22 22 23 24 24 26 27 28 29
13 13 13 12 12 11 11 11 11 11 11 11 11 11 10 10 10 10 11 12 13 13 13 13 14 14 15 15 16 16 18 18 19 20 21 23 23 24 25 26 27 29 29
13 12 12 11 12 11 12 12 12 11 12 12 11 11 11 10 10 10 11 12 13 14 14 14 14 14 14 14 15 15 16 17 18 19 21 22 23 24 26 27 28 29 29
13 13 12 12 12 13 13 13 12 12 11 10 10 10 9 9 10 10 11 12 12 13 13 14 15 15 15 14 15 15 16 17 18 19 21 23 24 25 26 26 27 28 28
15 14 14 14 14 14 14 13 13 13 11 10 9 9 9 10 11 11 12 12 13 13 13 12 13 12 12 12 13 15 16 17 18 19 21 22 23 25 25 26 27 28 29
15 15 16 16 15 14 14 13 13 12 11 10 10 10 11 11 11 12 12 13 13 12 11 12 12 13 13 14 14 16 17 18 19 21 21 22 23 24 26 27 28 29 30
17 17 16 16 16 15 13 12 12 12 11 11 11 11 12 12 13 13 13 12 12 12 13 13 13 14 15 15 15 17 18 19 20 20 21 22 23 23 25 26 27 29 31
17 17 17 17 17 15 13 13 12 13 13 13 12 13 13 13 13 13 13 13 14 14 15 15 15 15 16 16 17 18 18 19 20 21 22 23 24 25 25 27 28 29 30
18 17 17 16 16 16 14 14 14 13 14 14 13 13 14 14 14 15 15 15 15 16 16 17 17 17 17 18 18 18 19 20 21 22 23 24 24 25 25 27 28 29 30
20 18 17 17 17 15 15 15 14 14 14 14 14 15 15 16 16 16 17 17 18 18 18 19 19 19 19 19 20 21 21 22 23 24 24 25 25 26 27 28 29 30 31
20 17 17 17 16 16 15 15 15 15 15 15 15 16 17 17 17 17 17 18 19 19 19 20 20 21 21 22 22 22 23 23 24 25 26 26 27 28 28 29 29 30 31
21 20 19 17 16 16 15 16 16 16 16 16 16 16 17 18 18 19 19 19 19 20 20 20 21 22 22 22 23 23 24 25 26 26 27 28 28 29 29 30 31 32 32
21 20 19 18 18 17 16 16 17 17 16 16 16 17 18 18 19 19 19 19 19 20 21 21 22 22 23 24 24 25 26 27 27 28 29 29 29 30 31 31 32 33 34
Wind_Direction
347 348 344 337 336 335 332 327 325 320 315 314 307 304 303 294 283 264 255 256 259 256 253 249 251 250 249 248 248 251 250 246 245 248 255 262 262 267 270 271 274 277 280
336 336 336 327 323 324 323 318 315 311 307 301 299 299 297 290 283 268 257 256 256 256 251 251 250 253 250 246 246 248 249 248 247 248 251 259 263 263 268 272 275 279 279
318 322 323 326 318 315 312 309 307 305 303 299 297 296 290 288 283 274 265 258 250 250 253 252 249 251 251 246 245 247 248 249 248 248 252 257 262 264 266 270 275 277 278
308 312 313 312 314 311 308 306 300 297 298 299 298 295 288 284 280 276 271 264 255 248 247 248 248 248 247 245 244 245 247 248 251 252 254 258 261 262 265 268 270 275 278
304 304 305 303 302 302 304 303 298 296 298 298 299 296 290 286 278 274 268 264 258 250 249 249 250 250 248 245 245 247 248 249 251 253 255 259 261 263 264 265 268 271 275
302 298 296 297 294 297 300 301 299 298 298 300 300 297 293 293 287 276 268 262 258 252 252 251 250 250 251 249 248 248 248 250 251 253 254 258 261 263 264 264 267 269 272
305 302 297 294 290 293 297 296 300 301 303 304 304 302 296 293 288 279 271 263 257 253 255 254 253 253 253 251 250 250 250 252 253 254 255 257 259 261 264 265 267 268 271
308 307 301 298 293 290 292 292 295 297 300 302 303 301 297 292 287 277 272 264 257 256 259 256 257 257 256 254 254 255 254 253 253 256 258 259 260 261 263 265 267 268 270
300 304 302 299 295 291 290 292 292 293 296 298 301 302 298 289 282 276 270 264 260 259 261 258 259 261 260 259 259 257 257 256 256 258 259 260 259 261 262 265 268 268 269
295 301 301 298 295 293 294 293 294 298 299 296 297 298 297 288 282 276 272 267 264 263 265 264 262 262 261 258 259 260 258 256 257 259 260 261 262 262 263 264 267 268 270
293 299 306 306 297 292 292 294 297 298 300 297 296 296 295 290 283 277 272 265 261 265 267 268 263 263 263 261 260 258 258 257 257 259 261 262 262 262 263 264 267 269 271
289 296 304 305 301 297 295 297 299 302 300 295 295 293 289 286 278 274 271 268 267 270 271 270 268 268 267 264 261 261 260 258 258 260 262 263 263 263 263 266 268 270 271
288 298 300 301 301 302 298 297 296 300 301 294 293 294 291 284 281 281 278 275 273 275 274 272 274 273 271 267 264 263 262 261 259 260 263 263 265 265 266 267 269 272 273
286 293 296 299 301 302 299 298 298 301 303 299 300 295 289 283 281 284 281 281 281 282 276 275 276 276 274 270 268 265 264 264 261 262 263 265 267 267 268 269 271 272 274
286 291 292 294 298 300 303 299 298 302 304 303 301 294 288 287 286 284 284 283 284 287 284 280 279 279 278 274 270 271 268 267 265 265 267 268 271 271 271 272 274 275 275
285 290 289 289 294 297 300 298 295 300 301 299 295 292 289 290 289 287 290 288 288 287 283 286 282 282 280 279 274 273 272 271 270 272 272 272 273 274 274 275 277 277 277
278 285 285 288 292 293 296 296 294 299 300 296 290 288 284 285 290 290 291 292 291 291 285 286 283 283 281 279 276 277 278 275 274 275 276 277 276 277 279 279 279 278 278
274 278 282 286 288 292 294 293 293 295 295 295 295 290 287 290 291 292 293 291 288 289 290 292 291 288 286 283 281 282 284 283 280 281 282 282 280 279 278 280 280 279 280
277 281 285 285 284 286 288 286 288 289 287 288 289 288 288 289 291 291 292 293 291 295 301 303 297 292 292 291 288 288 288 287 286 286 286 286 285 283 282 282 282 282 283
279 281 282 283 281 279 276 278 280 281 283 285 285 286 288 288 288 288 290 289 290 294 299 304 301 294 294 295 293 291 290 289 289 289 288 289 289 287 287 287 285 285 286
275 278 280 281 276 270 267 268 273 277 279 282 282 282 284 286 286 287 289 291 292 294 297 299 299 295 296 295 295 294 292 292 293 293 292 291 291 290 289 289 289 289 290
275 276 277 276 270 263 261 265 270 276 279 281 281 281 282 285 287 287 287 289 292 294 296 297 297 297 297 296 296 296 295 296 296 296 295 294 294 293 292 291 292 292 293
271 271 271 271 266 257 258 262 269 275 279 280 280 280 280 282 284 285 286 288 290 291 292 294 294 295 295 296 298 298 297 297 297 298 298 296 295 295 294 293 292 292 293
266 267 269 268 262 260 256 259 267 272 276 279 281 280 280 281 282 286 288 289 288 288 289 292 293 294 295 296 297 297 297 298 299 299 299 298 297 296 295 295 295 296 297
264 264 264 265 263 261 259 264 269 274 278 279 280 280 281 283 283 285 285 287 289 289 289 290 291 293 294 294 295 296 297 298 298 298 299 299 298 297 296 297 297 298 298
260 262 260 261 263 261 262 268 271 274 278 282 281 279 281 282 283 284 285 286 287 288 289 290 291 293 294 295 296 297 297 296 297 297 298 299 299 298 298 298 299 299 299
Height
5900 5899 5898 5897 5897 5896 5894 5893 5893 5892 5891 5890 5889 5889 5888 5888 5887 5886 5888 5889 5890 5890 5891 5892 5893 5895 5896 5897 5898 5899 5900 5901 5901 5902 5902 5903 5903 5903 5903 5904 5904 5904 5904
5899 5898 5897 5896 5896 5895 5894 5893 5892 5891 5890 5889 5888 5887 5886 5885 5885 5886 5886 5886 5887 5888 5888 5890 5891 5892 5893 5895 5896 5897 5898 5899 5899 5900 5900 5901 5902 5902 5902 5902 5902 5902 5902
5897 5896 5896 5895 5894 5893 5892 5891 5890 5889 5888 5887 5886 5885 5884 5883 5882 5883 5883 5883 5883 5885 5885 5887 5888 5889 5891 5892 5893 5894 5896 5896 5897 5898 5899 5899 5900 5900 5900 5900 5900 5900 5900
5895 5894 5894 5893 5892 5891 5890 5889 5888 5887 5886 5885 5884 5882 5881 5880 5880 5880 5880 5879 5880 5881 5882 5883 5884 5886 5888 5889 5890 5891 5892 5893 5894 5895 5896 5897 5897 5897 5898 5898 5898 5898 5898
5894 5893 5891 5891 5890 5889 5888 5887 5886 5884 5883 5882 5881 5879 5878 5877 5876 5876 5876 5877 5877 5878 5879 5880 5881 5883 5884 5885 5887 5888 5889 5890 5891 5892 5893 5893 5894 5894 5895 5895 5895 5895 5895
5891 5890 5889 5888 5887 5887 5886 5885 5884 5882 5881 5879 5878 5876 5875 5873 5873 5873 5873 5874 5875 5875 5876 5877 5878 5879 5880 5881 5883 5884 5885 5886 5887 5888 5889 5890 5890 5890 5891 5891 5891 5891 5892
5888 5888 5886 5885 5885 5884 5883 5882 5881 5880 5878 5877 5875 5873 5872 5871 5871 5871 5871 5871 5872 5873 5873 5874 5875 5876 5877 5878 5879 5880 5881 5882 5883 5884 5885 5885 5886 5887 5887 5887 5887 5887 5888
5886 5885 5884 5883 5882 5881 5880 5880 5878 5877 5875 5874 5872 5871 5870 5869 5868 5868 5868 5869 5869 5870 5870 5871 5872 5873 5873 5874 5875 5876 5877 5878 5879 5880 5880 5881 5882 5882 5882 5883 5883 5883 5883
5883 5882 5882 5881 5879 5878 5877 5876 5875 5873 5872 5871 5870 5868 5867 5866 5865 5865 5865 5866 5866 5867 5867 5867 5868 5869 5869 5870 5871 5872 5872 5873 5874 5875 5875 5876 5877 5877 5878 5878 5878 5878 5878
5880 5879 5878 5877 5875 5874 5874 5873 5872 5870 5869 5868 5866 5865 5864 5863 5863 5863 5863 5863 5863 5863 5864 5864 5864 5865 5865 5866 5866 5867 5867 5868 5869 5870 5870 5871 5872 5872 5872 5873 5873 5873 5873
5877 5877 5875 5874 5872 5871 5871 5870 5869 5867 5866 5864 5863 5862 5861 5861 5861 5860 5860 5860 5860 5860 5860 5860 5860 5860 5860 5861 5861 5862 5862 5863 5864 5864 5865 5865 5866 5866 5867 5867 5867 5867 5867
5874 5873 5873 5871 5870 5869 5868 5867 5866 5864 5863 5862 5861 5860 5859 5858 5858 5858 5858 5857 5857 5857 5857 5857 5856 5856 5856 5856 5856 5856 5857 5857 5858 5859 5859 5860 5860 5860 5861 5861 5861 5861 5861
5871 5870 5870 5869 5868 5866 5865 5864 5863 5861 5860 5859 5858 5857 5856 5856 5856 5855 5855 5855 5855 5854 5853 5853 5853 5852 5851 5851 5851 5851 5852 5852 5853 5853 5854 5854 5854 5855 5855 5855 5855 5855 5854
5869 5868 5867 5866 5865 5864 5862 5861 5860 5859 5858 5856 5855 5854 5854 5854 5854 5853 5853 5852 5852 5851 5850 5850 5849 5848 5847 5847 5847 5847 5847 5847 5847 5848 5848 5849 5849 5849 5849 5849 5848 5848 5847
5865 5865 5864 5863 5862 5861 5860 5859 5858 5856 5855 5854 5852 5852 5852 5852 5851 5851 5850 5850 5849 5848 5847 5847 5846 5845 5844 5843 5843 5843 5842 5842 5842 5842 5843 5843 5842 5842 5842 5842 5841 5840 5839
5862 5861 5861 5860 5859 5858 5858 5856 5855 5854 5853 5851 5849 5849 5849 5849 5849 5848 5848 5847 5846 5845 5844 5843 5843 5842 5841 5840 5839 5839 5838 5838 5838 5837 5837 5837 5837 5836 5836 5835 5834 5833 5832
5859 5858 5858 5857 5856 5856 5855 5854 5853 5851 5850 5848 5846 5846 5847 5847 5846 5845 5845 5844 5843 5841 5840 5840 5839 5838 5837 5836 5836 5835 5835 5834 5833 5833 5832 5832 5831 5830 5829 5829 5827 5826 5824
5855 5854 5853 5853 5853 5852 5851 5851 5850 5849 5848 5846 5845 5845 5845 5844 5844 5843 5842 5841 5840 5839 5837 5836 5835 5834 5833 5832 5832 5831 5831 5829 5828 5828 5827 5826 5825 5824 5823 5822 5820 5818 5817
5850 5849 5849 5849 5848 5848 5847 5847 5847 5846 5845 5844 5844 5843 5842 5842 5841 5840 5839 5838 5837 5836 5834 5833 5831 5830 5829 5829 5828 5827 5826 5825 5824 5823 5821 5820 5818 5817 5816 5814 5813 5811 5809
5845 5844 5844 5844 5844 5844 5843 5843 5843 5843 5842 5842 5841 5840 5840 5839 5839 5837 5836 5835 5834 5833 5832 5830 5828 5827 5826 5825 5824 5823 5822 5820 5819 5817 5816 5814 5812 5811 5809 5807 5805 5803 5801
5840 5840 5839 5839 5840 5839 5839 5840 5840 5840 5839 5838 5838 5837 5837 5836 5835 5834 5833 5832 5831 5830 5828 5827 5825 5824 5823 5822 5820 5819 5817 5816 5814 5812 5810 5808 5806 5804 5802 5800 5798 5796 5793
5835 5835 5834 5834 5834 5835 5835 5835 5836 5836 5836 5835 5834 5833 5833 5832 5831 5831 5830 5829 5827 5826 5824 5823 5822 5820 5819 5817 5816 5814 5812 5811 5809 5807 5804 5802 5800 5797 5795 5793 5791 5788 5786
5830 5830 5830 5829 5829 5829 5830 5831 5832 5832 5831 5831 5830 5829 5829 5828 5827 5826 5825 5824 5823 5822 5820 5819 5818 5816 5815 5813 5811 5809 5807 5805 5803 5801 5798 5796 5794 5791 5789 5786 5783 5780 5778
5824 5824 5825 5825 5825 5825 5826 5827 5827 5827 5827 5826 5826 5825 5824 5824 5823 5822 5821 5820 5818 5817 5816 5815 5813 5811 5810 5808 5806 5804 5802 5800 5797 5795 5792 5790 5787 5784 5782 5779 5776 5773 5770
5819 5820 5820 5821 5821 5821 5822 5823 5823 5822 5822 5822 5821 5820 5820 5819 5818 5817 5816 5815 5813 5812 5811 5809 5808 5806 5804 5802 5800 5798 5796 5793 5791 5788 5786 5783 5780 5777 5774 5771 5768 5765 5762
5813 5814 5815 5816 5817 5817 5818 5818 5818 5818 5817 5817 5816 5815 5815 5814 5813 5812 5811 5809 5808 5807 5805 5804 5802 5800 5798 5796 5794 5792 5789 5786 5784 5781 5778 5775 5772 5770 5767 5763 5760 5757 5753